SAS841 ENGM-LSZH

Flight info

Callsign SAS841
Flight time 1h 56m
Altitude 35000
Route VIPPA DCT AMRAK/N0434F360 DCT SWALM DCT OMOGI/N0434F370 T721 RILAX
Aircraft A320/M-SDE3FGHIJ1RWXYZ/ALB1

Departure

Time 2026-05-01 10:26
Airport Oslo-Gardermoen International Airport (ENGM)

Arrival

Time 2026-05-01 12:22
Airport Zürich Airport (LSZH)
Time Latitude Longitude Altitude Speed Heading
2026-05-01 10:12 60.19550 11.09500 685 ft 0 kts 196°
2026-05-01 10:19 60.19565 11.09509 684 ft 4 kts 196°
2026-05-01 10:19 60.19591 11.09524 681 ft 4 kts 196°
2026-05-01 10:20 60.19599 11.09528 685 ft 0 kts 196°
2026-05-01 10:22 60.19604 11.09504 685 ft 3 kts 314°
2026-05-01 10:22 60.19716 11.09149 681 ft 20 kts 285°
2026-05-01 10:23 60.19760 11.08854 678 ft 25 kts 287°
2026-05-01 10:23 60.19918 11.08753 679 ft 15 kts 16°
2026-05-01 10:23 60.20021 11.08814 679 ft 16 kts 16°
2026-05-01 10:24 60.20256 11.08953 681 ft 19 kts 16°
2026-05-01 10:24 60.20537 11.09111 682 ft 23 kts 16°
2026-05-01 10:25 60.20671 11.08903 679 ft 18 kts 287°
2026-05-01 10:25 60.20632 11.08602 677 ft 26 kts 195°
2026-05-01 10:26 60.20219 11.08367 677 ft 94 kts 196°
2026-05-01 10:26 60.19410 11.07900 673 ft 145 kts 196°
2026-05-01 10:26 60.17333 11.06587 1672 ft 157 kts 202°
2026-05-01 10:27 60.15805 11.03160 2370 ft 191 kts 246°
2026-05-01 10:27 60.14625 10.97624 2956 ft 239 kts 246°
2026-05-01 10:28 60.13936 10.94449 3489 ft 255 kts 246°
2026-05-01 10:28 60.12440 10.87844 5203 ft 263 kts 245°
2026-05-01 10:28 60.11667 10.84511 6077 ft 266 kts 245°
2026-05-01 10:29 60.10092 10.77742 7810 ft 270 kts 246°
2026-05-01 10:29 60.09291 10.74296 8608 ft 274 kts 246°
2026-05-01 10:30 60.07662 10.67297 10135 ft 281 kts 246°
2026-05-01 10:30 60.05742 10.60086 10872 ft 316 kts 232°
2026-05-01 10:31 60.02116 10.54730 11977 ft 335 kts 202°
2026-05-01 10:31 59.97495 10.52792 13324 ft 343 kts 192°
2026-05-01 10:32 59.92746 10.51203 14635 ft 349 kts 192°
2026-05-01 10:32 59.90372 10.50415 15246 ft 352 kts 192°
2026-05-01 10:32 59.85514 10.48797 16438 ft 357 kts 192°
2026-05-01 10:33 59.80586 10.47153 17595 ft 361 kts 192°
2026-05-01 10:33 59.75589 10.45490 18706 ft 367 kts 192°
2026-05-01 10:34 59.73058 10.44648 19270 ft 370 kts 192°
2026-05-01 10:34 59.70511 10.43802 19827 ft 373 kts 192°
2026-05-01 10:34 59.67941 10.42951 20374 ft 376 kts 192°
2026-05-01 10:35 59.62699 10.41239 21408 ft 382 kts 192°
2026-05-01 10:35 59.60059 10.40378 21891 ft 385 kts 192°
2026-05-01 10:35 59.57405 10.39508 22372 ft 388 kts 192°
2026-05-01 10:35 59.54733 10.38611 22848 ft 391 kts 192°
2026-05-01 10:36 59.49333 10.36769 23743 ft 397 kts 192°
2026-05-01 10:36 59.46607 10.35842 24179 ft 399 kts 192°
2026-05-01 10:36 59.43894 10.34923 24603 ft 401 kts 192°
2026-05-01 10:37 59.41095 10.33978 25021 ft 404 kts 192°
2026-05-01 10:37 59.35552 10.32125 25807 ft 409 kts 192°
2026-05-01 10:37 59.32739 10.31187 26188 ft 412 kts 192°
2026-05-01 10:38 59.29907 10.30243 26549 ft 414 kts 192°
2026-05-01 10:38 59.27060 10.29293 26906 ft 416 kts 192°
2026-05-01 10:38 59.24201 10.28339 27246 ft 418 kts 192°
2026-05-01 10:38 59.21325 10.27380 27591 ft 421 kts 192°
2026-05-01 10:39 59.18424 10.26416 27930 ft 423 kts 192°
2026-05-01 10:39 59.15491 10.25718 28256 ft 427 kts 186°
2026-05-01 10:39 59.12527 10.25328 28586 ft 429 kts 186°
2026-05-01 10:39 59.09549 10.24932 28902 ft 431 kts 186°
2026-05-01 10:40 59.06546 10.24529 29200 ft 433 kts 186°
2026-05-01 10:40 59.03537 10.24121 29512 ft 435 kts 186°
2026-05-01 10:40 59.00507 10.23709 29807 ft 437 kts 186°
2026-05-01 10:40 58.97464 10.23301 30101 ft 439 kts 186°
2026-05-01 10:41 58.94419 10.22894 30420 ft 439 kts 186°
2026-05-01 10:41 58.91371 10.22489 30829 ft 438 kts 186°
2026-05-01 10:41 58.85302 10.21697 31600 ft 437 kts 185°
2026-05-01 10:42 58.82268 10.21309 31976 ft 436 kts 185°
2026-05-01 10:42 58.79242 10.20917 32343 ft 436 kts 185°
2026-05-01 10:42 58.76219 10.20530 32711 ft 435 kts 185°
2026-05-01 10:42 58.73197 10.20154 33089 ft 435 kts 185°
2026-05-01 10:43 58.70178 10.19782 33448 ft 434 kts 185°
2026-05-01 10:43 58.67165 10.19407 33801 ft 434 kts 185°
2026-05-01 10:43 58.64153 10.19027 34144 ft 434 kts 185°
2026-05-01 10:43 58.61144 10.18641 34476 ft 433 kts 185°
2026-05-01 10:44 58.58138 10.18248 34791 ft 433 kts 185°
2026-05-01 10:44 58.55131 10.17852 35113 ft 432 kts 185°
2026-05-01 10:44 58.52126 10.17462 35288 ft 434 kts 185°
2026-05-01 10:45 58.46073 10.16682 35330 ft 437 kts 185°
2026-05-01 10:45 58.40047 10.15933 35334 ft 437 kts 185°
2026-05-01 10:46 58.33974 10.15194 35340 ft 437 kts 185°
2026-05-01 10:46 58.27900 10.14437 35340 ft 437 kts 185°
2026-05-01 10:47 58.21832 10.13668 35343 ft 437 kts 185°
2026-05-01 10:47 58.15762 10.12917 35347 ft 438 kts 185°
2026-05-01 10:48 58.09682 10.12161 35353 ft 438 kts 185°
2026-05-01 10:48 58.03598 10.11400 35358 ft 438 kts 185°
2026-05-01 10:49 57.97518 10.10655 35366 ft 438 kts 185°
2026-05-01 10:49 57.91444 10.09906 35368 ft 438 kts 185°
2026-05-01 10:50 57.85354 10.09152 35370 ft 438 kts 185°
2026-05-01 10:50 57.79270 10.08419 35370 ft 438 kts 185°
2026-05-01 10:51 57.73182 10.07690 35375 ft 438 kts 185°
2026-05-01 10:51 57.67097 10.06948 35381 ft 439 kts 185°
2026-05-01 10:52 57.60997 10.06202 35384 ft 439 kts 185°
2026-05-01 10:52 57.54901 10.05474 35390 ft 439 kts 185°
2026-05-01 10:53 57.48804 10.04743 35392 ft 439 kts 185°
2026-05-01 10:53 57.42710 10.04004 35391 ft 438 kts 185°
2026-05-01 10:54 57.36622 10.03281 35391 ft 438 kts 185°
2026-05-01 10:54 57.30540 10.02566 35391 ft 438 kts 184°
2026-05-01 10:55 57.24497 10.01860 35392 ft 438 kts 184°
2026-05-01 10:55 57.18372 10.01135 35393 ft 438 kts 184°
2026-05-01 10:56 57.12281 10.00416 35394 ft 438 kts 184°
2026-05-01 10:56 57.06231 9.99716 35400 ft 439 kts 184°
2026-05-01 10:57 57.00142 9.99007 35402 ft 438 kts 184°
2026-05-01 10:57 56.94063 9.98282 35394 ft 437 kts 184°
2026-05-01 10:58 56.87988 9.97585 35395 ft 437 kts 184°
2026-05-01 10:58 56.81907 9.96885 35396 ft 438 kts 184°
2026-05-01 10:59 56.75832 9.96189 35394 ft 437 kts 184°
2026-05-01 10:59 56.69755 9.95496 35394 ft 438 kts 184°
2026-05-01 11:00 56.63677 9.94798 35399 ft 438 kts 184°
2026-05-01 11:00 56.57598 9.94104 35402 ft 438 kts 184°
2026-05-01 11:01 56.51511 9.93416 35408 ft 438 kts 184°
2026-05-01 11:01 56.45431 9.92733 35408 ft 438 kts 184°
2026-05-01 11:02 56.40381 9.92157 35404 ft 438 kts 184°
2026-05-01 11:02 56.34298 9.91457 35406 ft 438 kts 184°
2026-05-01 11:03 56.28218 9.90777 35406 ft 438 kts 184°
2026-05-01 11:03 56.22138 9.90103 35405 ft 438 kts 184°
2026-05-01 11:04 56.16053 9.89422 35408 ft 438 kts 184°
2026-05-01 11:04 56.09968 9.88748 35407 ft 438 kts 184°
2026-05-01 11:05 56.03885 9.88073 35416 ft 438 kts 184°
2026-05-01 11:05 55.97803 9.87400 35414 ft 438 kts 183°
2026-05-01 11:06 55.91727 9.86739 35411 ft 437 kts 184°
2026-05-01 11:06 55.85651 9.86071 35410 ft 438 kts 184°
2026-05-01 11:07 55.76519 9.85077 35406 ft 438 kts 184°
2026-05-01 11:07 55.70431 9.84417 35409 ft 438 kts 183°
2026-05-01 11:08 55.64379 9.83767 35419 ft 439 kts 184°
2026-05-01 11:09 55.55247 9.82772 35425 ft 438 kts 184°
2026-05-01 11:09 55.49157 9.82114 35426 ft 438 kts 183°
2026-05-01 11:10 55.40016 9.81137 35428 ft 439 kts 183°
2026-05-01 11:10 55.33927 9.80481 35428 ft 438 kts 183°
2026-05-01 11:11 55.27847 9.79818 35426 ft 438 kts 183°
2026-05-01 11:11 55.21757 9.79175 35426 ft 438 kts 183°
2026-05-01 11:12 55.15667 9.78537 35426 ft 439 kts 183°
2026-05-01 11:12 55.09574 9.77896 35425 ft 439 kts 183°
2026-05-01 11:13 55.03480 9.77255 35422 ft 438 kts 183°
2026-05-01 11:13 54.97393 9.76618 35420 ft 439 kts 183°
2026-05-01 11:14 54.91291 9.75985 35424 ft 439 kts 183°
2026-05-01 11:14 54.85191 9.75347 35427 ft 439 kts 183°
2026-05-01 11:15 54.79086 9.74660 35429 ft 439 kts 184°
2026-05-01 11:15 54.73001 9.73766 35429 ft 439 kts 185°
2026-05-01 11:16 54.66913 9.72805 35430 ft 439 kts 185°
2026-05-01 11:16 54.60824 9.71893 35429 ft 439 kts 185°
2026-05-01 11:17 54.54732 9.71015 35431 ft 439 kts 184°
2026-05-01 11:17 54.48682 9.70159 35431 ft 439 kts 184°
2026-05-01 11:18 54.42595 9.69300 35429 ft 439 kts 184°
2026-05-01 11:18 54.36505 9.68429 35429 ft 439 kts 184°
2026-05-01 11:19 54.30409 9.67559 35431 ft 439 kts 184°
2026-05-01 11:19 54.24314 9.66696 35433 ft 440 kts 184°
2026-05-01 11:20 54.18216 9.65837 35434 ft 439 kts 184°
2026-05-01 11:20 54.12122 9.64975 35431 ft 439 kts 184°
2026-05-01 11:21 54.06035 9.64107 35431 ft 439 kts 184°
2026-05-01 11:21 53.99949 9.63250 35424 ft 439 kts 184°
2026-05-01 11:22 53.93865 9.62399 35424 ft 439 kts 184°
2026-05-01 11:22 53.87779 9.61549 35423 ft 439 kts 184°
2026-05-01 11:23 53.81692 9.60704 35423 ft 439 kts 184°
2026-05-01 11:23 53.75607 9.59859 35424 ft 439 kts 184°
2026-05-01 11:24 53.69506 9.59006 35426 ft 440 kts 184°
2026-05-01 11:25 53.60350 9.57747 35427 ft 440 kts 184°
2026-05-01 11:25 53.51196 9.56498 35426 ft 440 kts 184°
2026-05-01 11:26 53.42035 9.55243 35428 ft 441 kts 184°
2026-05-01 11:27 53.35921 9.54401 35430 ft 441 kts 184°
2026-05-01 11:27 53.29810 9.53578 35429 ft 440 kts 184°
2026-05-01 11:28 53.23747 9.52760 35428 ft 441 kts 184°
2026-05-01 11:28 53.17631 9.51936 35428 ft 441 kts 184°
2026-05-01 11:29 53.08456 9.50704 35428 ft 442 kts 184°
2026-05-01 11:30 52.99217 9.49455 35427 ft 441 kts 184°
2026-05-01 11:30 52.93135 9.48646 35422 ft 442 kts 184°
2026-05-01 11:31 52.87012 9.47834 35415 ft 441 kts 184°
2026-05-01 11:31 52.80904 9.47017 35403 ft 441 kts 184°
2026-05-01 11:32 52.74781 9.46208 35402 ft 441 kts 184°
2026-05-01 11:32 52.68665 9.45412 35401 ft 441 kts 184°
2026-05-01 11:33 52.62541 9.44604 35400 ft 441 kts 184°
2026-05-01 11:33 52.56419 9.43796 35397 ft 441 kts 184°
2026-05-01 11:34 52.50294 9.42996 35394 ft 442 kts 184°
2026-05-01 11:34 52.44170 9.42200 35392 ft 442 kts 184°
2026-05-01 11:35 52.38029 9.41393 35392 ft 442 kts 184°
2026-05-01 11:35 52.31900 9.40594 35391 ft 442 kts 184°
2026-05-01 11:36 52.25767 9.39809 35390 ft 442 kts 184°
2026-05-01 11:36 52.19634 9.39015 35388 ft 442 kts 184°
2026-05-01 11:37 52.13504 9.38220 35388 ft 442 kts 184°
2026-05-01 11:37 52.07369 9.37434 35387 ft 442 kts 184°
2026-05-01 11:38 52.01245 9.36654 35387 ft 442 kts 184°
2026-05-01 11:38 51.95110 9.35867 35386 ft 442 kts 184°
2026-05-01 11:39 51.88976 9.35083 35383 ft 443 kts 184°
2026-05-01 11:39 51.82837 9.34305 35384 ft 443 kts 184°
2026-05-01 11:40 51.76685 9.33529 35388 ft 443 kts 184°
2026-05-01 11:40 51.70538 9.32755 35394 ft 443 kts 184°
2026-05-01 11:41 51.64387 9.31969 35397 ft 443 kts 184°
2026-05-01 11:41 51.58238 9.31195 35403 ft 443 kts 184°
2026-05-01 11:42 51.52088 9.30432 35408 ft 443 kts 184°
2026-05-01 11:42 51.45933 9.29658 35408 ft 444 kts 184°
2026-05-01 11:43 51.39779 9.28891 35415 ft 444 kts 184°
2026-05-01 11:43 51.33665 9.28128 35421 ft 444 kts 184°
2026-05-01 11:44 51.24423 9.26981 35416 ft 444 kts 184°
2026-05-01 11:44 51.18258 9.26227 35412 ft 445 kts 184°
2026-05-01 11:45 51.12089 9.25462 35407 ft 444 kts 184°
2026-05-01 11:45 51.05920 9.24695 35404 ft 445 kts 184°
2026-05-01 11:46 50.99751 9.23953 35402 ft 444 kts 184°
2026-05-01 11:46 50.93587 9.23215 35398 ft 444 kts 184°
2026-05-01 11:47 50.88463 9.22589 35395 ft 444 kts 184°
2026-05-01 11:47 50.82292 9.21835 35396 ft 444 kts 184°
2026-05-01 11:48 50.76124 9.21096 35393 ft 445 kts 184°
2026-05-01 11:48 50.69954 9.20314 35391 ft 445 kts 185°
2026-05-01 11:49 50.63814 9.19103 35389 ft 445 kts 188°
2026-05-01 11:49 50.57684 9.17685 35385 ft 445 kts 188°
2026-05-01 11:50 50.51542 9.16337 35393 ft 445 kts 187°
2026-05-01 11:50 50.45401 9.15082 35391 ft 445 kts 187°
2026-05-01 11:51 50.39199 9.13829 35388 ft 445 kts 187°
2026-05-01 11:51 50.33114 9.12594 35383 ft 445 kts 187°
2026-05-01 11:52 50.26974 9.11338 35382 ft 445 kts 187°
2026-05-01 11:52 50.20825 9.10070 35381 ft 445 kts 187°
2026-05-01 11:53 50.14681 9.08810 35381 ft 445 kts 187°
2026-05-01 11:53 50.08535 9.07564 35384 ft 445 kts 187°
2026-05-01 11:54 50.02420 9.06329 35383 ft 446 kts 187°
2026-05-01 11:54 49.96265 9.05084 35379 ft 446 kts 187°
2026-05-01 11:55 49.90114 9.03848 35376 ft 446 kts 187°
2026-05-01 11:55 49.83955 9.02605 35377 ft 446 kts 187°
2026-05-01 11:56 49.77798 9.01368 35371 ft 446 kts 187°
2026-05-01 11:56 49.71552 9.00134 35374 ft 447 kts 187°
2026-05-01 11:57 49.65469 8.98922 35373 ft 446 kts 187°
2026-05-01 11:57 49.59244 8.97374 35371 ft 446 kts 190°
2026-05-01 11:58 49.56276 8.96509 35159 ft 446 kts 191°
2026-05-01 11:58 49.53239 8.95602 34908 ft 444 kts 191°
2026-05-01 11:58 49.47102 8.93823 34399 ft 440 kts 190°
2026-05-01 11:59 49.44190 8.93021 34157 ft 438 kts 189°
2026-05-01 11:59 49.41190 8.92205 33907 ft 437 kts 189°
2026-05-01 11:59 49.38202 8.91401 33655 ft 435 kts 189°
2026-05-01 12:00 49.32266 8.89806 33159 ft 431 kts 189°
2026-05-01 12:00 49.29318 8.89009 32913 ft 430 kts 189°
2026-05-01 12:00 49.23445 8.87410 32404 ft 427 kts 189°
2026-05-01 12:01 49.20525 8.86613 32153 ft 424 kts 189°
2026-05-01 12:01 49.17634 8.85822 31713 ft 421 kts 189°
2026-05-01 12:01 49.14754 8.85033 31242 ft 419 kts 189°
2026-05-01 12:01 49.11890 8.84247 30771 ft 417 kts 189°
2026-05-01 12:02 49.09038 8.83469 30312 ft 415 kts 189°
2026-05-01 12:02 49.06205 8.82699 29861 ft 413 kts 189°
2026-05-01 12:02 49.03383 8.81930 29419 ft 411 kts 189°
2026-05-01 12:02 49.00576 8.81166 28972 ft 409 kts 189°
2026-05-01 12:03 48.97781 8.80410 28545 ft 407 kts 189°
2026-05-01 12:03 48.94997 8.79660 28123 ft 405 kts 189°
2026-05-01 12:03 48.92227 8.78917 27709 ft 403 kts 189°
2026-05-01 12:03 48.89475 8.78176 27302 ft 401 kts 189°
2026-05-01 12:04 48.86734 8.77437 26896 ft 399 kts 189°
2026-05-01 12:04 48.84009 8.76702 26489 ft 398 kts 189°
2026-05-01 12:04 48.81285 8.75966 26083 ft 396 kts 189°
2026-05-01 12:04 48.78575 8.75235 25660 ft 395 kts 189°
2026-05-01 12:05 48.75874 8.74509 25234 ft 394 kts 189°
2026-05-01 12:05 48.70494 8.73071 24358 ft 391 kts 189°
2026-05-01 12:05 48.67823 8.72354 23921 ft 390 kts 189°
2026-05-01 12:06 48.65155 8.71641 23483 ft 388 kts 189°
2026-05-01 12:06 48.62500 8.70935 23029 ft 387 kts 189°
2026-05-01 12:06 48.59848 8.70232 22561 ft 386 kts 189°
2026-05-01 12:06 48.57209 8.69531 22095 ft 385 kts 189°
2026-05-01 12:07 48.54581 8.68830 21654 ft 382 kts 189°
2026-05-01 12:07 48.51968 8.68137 21194 ft 380 kts 189°
2026-05-01 12:07 48.49374 8.67447 20732 ft 378 kts 189°
2026-05-01 12:07 48.46789 8.66758 20278 ft 376 kts 189°
2026-05-01 12:08 48.44262 8.66089 19846 ft 373 kts 189°
2026-05-01 12:08 48.41678 8.65409 19380 ft 370 kts 189°
2026-05-01 12:08 48.39185 8.64752 18935 ft 368 kts 189°
2026-05-01 12:08 48.36675 8.64078 18489 ft 365 kts 189°
2026-05-01 12:09 48.34188 8.63357 18063 ft 362 kts 190°
2026-05-01 12:09 48.31730 8.62613 17628 ft 359 kts 190°
2026-05-01 12:09 48.29287 8.61863 17184 ft 357 kts 190°
2026-05-01 12:09 48.26862 8.61115 16749 ft 354 kts 190°
2026-05-01 12:10 48.24464 8.60377 16318 ft 351 kts 190°
2026-05-01 12:10 48.19712 8.58934 15470 ft 346 kts 190°
2026-05-01 12:10 48.17356 8.58225 15046 ft 344 kts 190°
2026-05-01 12:11 48.12715 8.56836 14228 ft 337 kts 190°
2026-05-01 12:11 48.10423 8.56151 13811 ft 335 kts 190°
2026-05-01 12:11 48.08151 8.55474 13407 ft 332 kts 190°
2026-05-01 12:12 48.05897 8.54801 13004 ft 330 kts 190°
2026-05-01 12:12 48.03653 8.54130 12601 ft 327 kts 190°
2026-05-01 12:12 48.01428 8.53470 12207 ft 325 kts 190°
2026-05-01 12:12 47.99218 8.52813 11805 ft 323 kts 190°
2026-05-01 12:13 47.97024 8.52158 11508 ft 318 kts 190°
2026-05-01 12:13 47.94895 8.51524 11367 ft 306 kts 190°
2026-05-01 12:13 47.92835 8.50912 10846 ft 299 kts 190°
2026-05-01 12:13 47.90812 8.50303 10321 ft 293 kts 191°
2026-05-01 12:14 47.88846 8.49704 9939 ft 283 kts 191°
2026-05-01 12:14 47.86913 8.49118 9585 ft 283 kts 190°
2026-05-01 12:14 47.84981 8.48532 9229 ft 284 kts 191°
2026-05-01 12:14 47.83028 8.47939 8645 ft 290 kts 191°
2026-05-01 12:15 47.81068 8.47347 8199 ft 283 kts 191°
2026-05-01 12:15 47.79206 8.46784 7868 ft 273 kts 191°
2026-05-01 12:15 47.77333 8.46222 7503 ft 275 kts 190°
2026-05-01 12:15 47.75456 8.45662 7150 ft 275 kts 191°
2026-05-01 12:16 47.73577 8.45098 6819 ft 276 kts 190°
2026-05-01 12:16 47.71693 8.44528 6471 ft 277 kts 191°
2026-05-01 12:16 47.69844 8.43742 6100 ft 278 kts 203°
2026-05-01 12:16 47.68181 8.42274 5739 ft 280 kts 218°
2026-05-01 12:17 47.66820 8.40264 5613 ft 273 kts 227°
2026-05-01 12:17 47.65549 8.38225 5477 ft 262 kts 226°
2026-05-01 12:17 47.64324 8.36378 5358 ft 241 kts 216°
2026-05-01 12:17 47.62865 8.35471 5243 ft 220 kts 184°
2026-05-01 12:18 47.61430 8.35788 5097 ft 203 kts 154°
2026-05-01 12:18 47.60303 8.36994 4761 ft 202 kts 137°
2026-05-01 12:18 47.59279 8.38412 4382 ft 198 kts 136°
2026-05-01 12:18 47.58302 8.39768 4098 ft 187 kts 136°
2026-05-01 12:19 47.57373 8.41046 3850 ft 178 kts 136°
2026-05-01 12:19 47.56494 8.42255 3629 ft 166 kts 136°
2026-05-01 12:19 47.55668 8.43387 3418 ft 159 kts 136°
2026-05-01 12:19 47.54874 8.44478 3204 ft 151 kts 136°
2026-05-01 12:20 47.54116 8.45517 3008 ft 147 kts 136°
2026-05-01 12:20 47.53372 8.46538 2809 ft 146 kts 135°
2026-05-01 12:20 47.52627 8.47558 2616 ft 145 kts 136°
2026-05-01 12:20 47.51886 8.48573 2422 ft 145 kts 135°
2026-05-01 12:21 47.51149 8.49591 2219 ft 145 kts 135°
2026-05-01 12:21 47.50406 8.50597 2005 ft 144 kts 136°
2026-05-01 12:21 47.49667 8.51594 1797 ft 143 kts 135°
2026-05-01 12:21 47.48940 8.52599 1629 ft 143 kts 136°
2026-05-01 12:22 47.48214 8.53599 1452 ft 143 kts 136°
2026-05-01 12:22 47.47547 8.54516 1399 ft 110 kts 137°
2026-05-01 12:22 47.47111 8.55109 1387 ft 61 kts 137°
2026-05-01 12:22 47.46845 8.55473 1399 ft 45 kts 138°
2026-05-01 12:23 47.46627 8.55766 1396 ft 34 kts 136°
2026-05-01 12:23 47.46447 8.55929 1406 ft 25 kts 159°
2026-05-01 12:23 47.46299 8.55977 1409 ft 21 kts 169°
2026-05-01 12:23 47.46168 8.56054 1407 ft 20 kts 143°
2026-05-01 12:24 47.46063 8.56195 1409 ft 21 kts 136°
2026-05-01 12:24 47.45970 8.56312 1414 ft 14 kts 159°
2026-05-01 12:24 47.45874 8.56302 1414 ft 15 kts 187°
2026-05-01 12:24 47.45770 8.56286 1418 ft 16 kts 185°
2026-05-01 12:25 47.45644 8.56270 1412 ft 20 kts 186°
2026-05-01 12:25 47.45482 8.56119 1408 ft 16 kts 276°
2026-05-01 12:25 47.45492 8.55966 1413 ft 9 kts 265°
2026-05-01 12:26 47.45448 8.55952 1408 ft 8 kts 186°
2026-05-01 12:26 47.45407 8.55945 1407 ft 0 kts 187°